Temperature
11 11 11 11 11 11 11 11 11 11 11 11 11 11 11 11 11 11 10 10 10 10 10 10 10 10 10 10 10 10 10 10 10 10 10 10 10 10 9 9 9 9 9
10 11 11 11 11 11 11 11 11 11 10 10 10 11 10 10 10 10 10 10 10 10 10 10 10 10 10 10 9 9 9 9 9 9 9 9 9 9 9 9 9 9 9
10 10 10 10 10 10 10 10 10 10 10 10 10 10 10 10 10 10 9 10 10 10 9 9 9 9 9 9 9 9 9 9 9 9 9 8 8 8 9 8 8 8 8
9 10 10 10 10 10 10 10 10 9 10 9 10 10 10 10 10 9 9 9 9 9 9 9 9 9 9 8 8 8 8 8 8 8 8 8 8 8 8 8 8 8 8
9 9 9 9 9 9 9 9 9 9 9 9 9 9 9 9 9 9 9 9 9 9 9 8 8 8 8 8 8 8 8 8 8 8 7 7 7 7 7 7 8 7 7
8 9 9 9 9 9 9 8 8 8 8 8 8 9 9 9 9 9 9 8 8 8 8 8 8 8 8 7 7 7 7 7 7 7 7 7 7 7 7 7 7 7 7
8 8 8 8 8 8 8 8 8 8 8 8 8 8 8 8 8 8 8 8 8 8 8 8 8 7 7 7 7 7 7 7 7 7 7 7 7 6 6 7 7 7 7
7 7 7 7 7 7 7 7 7 7 7 7 7 7 7 7 7 7 7 7 7 7 7 7 7 7 7 7 7 7 7 6 6 6 6 6 6 6 6 6 6 6 6
7 7 7 7 7 7 7 7 7 7 7 7 7 6 6 6 6 7 7 7 7 7 7 7 7 7 7 7 7 6 6 6 6 6 6 6 6 6 5 5 5 5 5
6 6 6 6 6 6 6 6 6 6 6 6 6 6 6 6 6 6 6 6 6 6 6 6 6 6 6 6 6 6 6 6 6 5 5 5 5 5 5 5 5 5 5
6 6 5 5 5 5 6 6 6 6 6 6 6 6 6 6 6 6 5 6 6 6 6 6 6 6 6 5 6 6 5 5 5 5 5 5 5 5 5 4 4 4 4
5 5 5 5 5 5 5 5 5 5 5 5 5 5 5 5 5 5 5 5 5 6 6 5 5 5 5 5 5 5 5 5 4 4 4 4 4 4 4 4 4 4 4
5 5 4 4 4 4 4 4 4 5 5 5 5 5 5 5 5 5 5 5 4 5 5 5 5 5 5 4 4 4 4 4 4 4 4 4 4 4 4 4 4 3 3
4 4 4 4 4 4 4 4 4 4 4 4 4 4 4 4 4 4 4 4 4 4 4 4 4 4 4 4 4 4 3 4 3 3 3 3 3 3 3 3 3 3 3
4 4 4 4 4 3 3 3 3 3 4 4 4 4 4 4 4 4 4 4 3 3 3 3 4 4 3 3 3 3 3 3 3 3 3 3 3 3 3 3 3 2 2
3 3 3 3 3 3 3 3 3 3 3 3 3 3 3 3 3 3 3 3 3 3 3 3 3 3 3 3 3 3 3 2 2 2 2 2 2 2 2 2 2 2 2
3 3 3 3 3 3 3 2 3 2 2 2 2 3 3 3 3 3 3 3 3 2 2 2 3 2 2 2 2 2 2 2 2 2 2 2 2 2 2 2 2 2 2
2 2 2 2 2 2 2 2 2 2 2 2 2 2 2 2 2 2 2 2 2 2 2 2 2 2 2 2 2 2 2 2 2 2 1 1 1 1 1 1 1 1 1
2 2 2 1 1 2 2 2 2 2 2 2 2 2 2 2 2 2 2 2 2 2 1 1 1 1 1 1 1 1 1 1 1 1 1 1 1 1 1 1 1 1 1
1 1 1 1 1 1 1 1 1 1 1 1 1 1 1 1 1 1 1 1 1 1 1 1 1 1 1 1 1 1 1 1 1 1 1 1 0 0 0 0 1 1 1
1 1 1 1 1 1 1 1 1 0 1 1 1 1 1 1 1 1 1 1 1 1 1 0 0 0 0 0 -0 0 0 0 0 0 0 0 0 0 0 0 0 0 0
0 0 0 0 0 0 0 0 0 0 0 0 0 0 0 1 0 0 0 0 0 0 0 0 -0 -1 -0 -0 -0 -0 -0 -0 -1 -0 -0 -0 -0 0 0 0 0 0 0
-0 -0 -0 -0 -0 0 0 -0 -0 -0 -0 -0 -0 -0 0 -0 -0 -0 -0 -0 -0 -0 -0 -0 -1 -1 -1 -1 -1 -1 -1 -1 -1 -1 -1 -1 -0 -0 -0 -0 -0 -0 -0
-0 -1 -1 -0 -0 -0 -0 -0 -0 -0 -1 -1 -1 -1 -0 -1 -1 -1 -0 -0 -1 -1 -1 -1 -1 -1 -1 -1 -1 -1 -1 -1 -1 -2 -2 -1 -1 -1 -0 -0 -1 -1 -1
-1 -1 -1 -1 -1 -1 -1 -1 -1 -1 -1 -1 -1 -1 -1 -1 -1 -1 -1 -1 -1 -1 -1 -1 -1 -1 -1 -1 -1 -1 -2 -2 -2 -2 -2 -2 -2 -2 -1 -1 -1 -1 -1
-1 -1 -1 -1 -1 -1 -2 -1 -1 -1 -1 -1 -1 -1 -1 -1 -1 -1 -1 -1 -1 -1 -1 -1 -1 -1 -1 -1 -2 -2 -2 -2 -3 -3 -2 -3 -2 -2 -2 -1 -1 -1 -1
Wind_Speed
1 1 1 1 1 1 1 1 1 1 1 2 2 3 3 3 2 1 1 3 3 4 5 6 5 5 5 5 5 5 5 5 5 6 7 7 7 7 8 8 8 8 8
1 1 1 0 1 1 2 2 2 2 2 2 2 2 3 3 2 2 2 3 4 4 5 6 5 5 6 6 6 6 6 6 6 6 7 8 8 8 8 8 8 8 9
2 1 1 1 1 2 2 2 2 2 2 2 2 2 2 2 3 2 2 3 4 4 5 5 5 6 6 6 7 6 7 7 7 7 7 8 9 8 9 9 10 10 10
2 2 1 1 2 2 2 2 2 2 2 2 2 2 2 2 2 2 2 2 3 3 4 5 6 6 7 7 8 8 8 8 8 8 8 8 9 9 10 11 11 11 11
2 2 1 2 2 1 1 2 2 1 2 2 2 3 2 3 3 2 2 1 2 3 4 5 6 7 8 9 9 9 9 9 9 9 9 9 10 11 11 11 11 11 12
3 3 2 2 2 1 2 2 2 1 2 2 2 3 3 3 3 2 2 1 2 3 3 4 5 6 8 9 10 10 10 10 10 10 10 10 10 11 12 12 12 12 12
3 2 2 2 2 2 3 2 2 2 2 1 1 2 3 3 2 2 1 1 2 3 3 4 4 4 5 8 9 10 11 11 11 11 11 11 12 13 13 13 13 13 13
3 3 3 2 3 3 3 3 2 2 2 1 1 1 1 2 2 2 2 2 2 2 3 3 3 4 4 5 8 11 11 11 11 11 12 12 13 14 14 14 14 14 13
4 4 4 4 3 3 3 4 3 3 2 2 1 1 1 2 2 2 3 3 3 3 3 3 3 4 4 4 6 9 11 11 12 12 13 13 14 14 14 15 14 13 14
4 4 4 4 4 3 3 4 4 3 3 3 2 2 2 2 2 2 2 3 3 4 3 3 3 3 4 4 5 7 9 11 12 13 13 14 15 15 15 14 13 13 14
4 4 4 4 4 4 4 4 4 3 3 4 3 2 3 3 3 2 4 3 3 3 3 3 3 3 5 4 4 6 9 11 12 13 14 15 15 14 14 14 13 13 13
3 3 3 3 4 4 4 4 4 4 4 4 3 3 2 2 2 2 3 4 4 4 4 3 3 3 3 3 4 7 8 10 11 13 13 13 13 13 14 14 14 13 13
3 4 3 3 3 4 4 4 4 4 5 4 3 3 3 3 2 2 3 4 4 3 3 3 2 2 2 2 3 7 8 9 11 12 13 13 12 13 13 14 13 13 14
4 4 3 4 4 4 4 4 4 4 4 4 4 4 3 3 2 2 3 3 4 4 3 3 2 2 2 3 4 7 6 9 10 10 11 12 12 13 13 12 12 13 13
4 4 3 4 4 4 4 3 3 4 3 4 4 4 3 3 3 2 2 3 4 5 6 3 2 2 3 3 6 5 5 8 10 10 9 10 10 11 11 11 12 12 13
4 4 4 4 4 4 4 3 3 3 3 4 3 4 4 3 3 3 3 3 3 5 6 3 2 3 3 5 7 6 6 9 9 9 10 10 10 10 11 12 12 13 13
3 4 4 3 4 4 3 3 3 3 4 4 4 4 4 3 3 2 2 3 3 3 6 4 3 3 3 4 4 5 6 5 6 9 10 10 9 10 10 11 12 12 13
3 3 3 3 3 3 3 4 4 4 4 4 4 4 3 3 3 3 3 3 3 3 3 5 4 3 3 3 3 4 4 5 5 8 10 10 10 10 10 10 10 11 11
3 3 3 3 3 3 4 4 4 4 4 4 4 4 4 3 3 3 3 3 3 3 3 3 4 3 3 3 3 4 4 3 5 7 9 9 9 9 9 10 10 10 10
3 3 3 3 3 3 3 3 4 3 3 3 3 4 4 4 4 4 3 3 3 3 2 2 2 3 3 2 2 3 4 3 4 5 6 7 8 9 9 9 9 9 10
3 3 3 3 3 3 3 3 3 2 2 2 3 3 3 3 4 3 3 3 3 3 2 2 2 2 2 2 2 2 4 4 4 2 3 4 4 4 5 8 8 8 9
2 2 2 3 3 3 4 5 3 2 2 2 3 2 2 2 2 3 4 3 3 3 3 3 2 3 3 2 2 2 3 3 4 2 2 4 3 3 4 4 6 7 8
2 2 2 2 3 3 5 5 4 2 2 2 2 2 2 1 1 1 1 3 3 4 4 3 3 4 3 2 2 2 2 3 4 3 3 4 3 4 4 5 6 6 7
2 2 2 2 2 4 5 4 3 1 1 1 1 1 1 1 1 0 0 1 1 2 3 2 2 2 2 2 2 3 3 2 3 2 2 2 3 4 5 5 6 6 7
2 2 2 2 2 3 4 3 2 0 0 1 1 1 1 1 1 1 1 1 1 2 3 3 3 3 3 2 2 1 1 2 3 3 2 1 2 4 4 3 4 6 6
2 2 2 2 1 2 3 3 2 1 0 0 0 0 1 0 1 1 1 0 1 2 2 2 3 4 3 2 2 1 1 1 2 2 2 2 2 3 2 2 2 3 4
Wind_Direction
332 347 354 16 345 335 296 281 268 256 244 246 259 259 257 258 261 239 196 200 223 241 253 252 246 250 255 254 256 262 268 270 277 282 286 287 285 281 281 284 283 284 286
349 336 331 340 331 302 285 279 281 258 233 240 245 258 263 277 268 233 187 205 229 238 247 252 252 256 259 256 260 262 266 269 273 277 281 283 287 283 285 282 279 284 286
345 329 278 252 295 299 282 264 260 267 250 243 251 262 260 261 271 249 202 202 222 236 247 250 256 259 258 260 263 263 266 271 271 274 279 283 281 284 282 284 281 279 282
324 324 270 251 299 297 289 243 221 249 257 257 264 268 267 256 255 258 232 202 197 212 234 256 263 265 264 265 267 267 268 271 271 275 278 282 283 284 284 282 283 281 279
314 308 290 283 295 283 273 262 239 225 258 264 269 266 260 255 241 242 239 207 188 201 213 239 256 264 268 269 269 269 270 271 273 273 275 278 283 283 284 282 280 282 279
299 299 282 290 281 250 262 267 261 242 256 258 281 281 268 257 235 209 233 222 202 213 215 232 240 250 262 269 269 270 271 272 274 276 276 277 279 281 282 281 278 281 281
268 269 268 278 264 240 246 257 271 258 254 260 309 306 288 261 234 205 218 241 225 220 222 231 230 238 252 266 274 275 276 274 274 277 280 279 279 280 282 283 279 280 281
252 255 238 246 253 248 252 254 253 248 257 216 213 300 287 285 283 270 235 239 243 237 235 238 229 232 240 250 265 273 275 274 276 279 283 283 280 281 283 285 280 280 282
252 252 244 242 243 239 243 244 233 232 242 245 204 196 222 243 287 254 239 234 242 254 247 246 240 237 244 245 252 261 270 276 280 281 283 285 284 283 282 285 280 281 284
247 247 242 242 242 240 243 251 245 239 225 236 240 233 233 242 239 263 269 249 247 257 259 268 258 248 248 246 253 265 273 276 279 283 285 286 286 284 283 287 281 282 285
244 243 242 238 238 243 241 243 254 243 234 234 236 253 261 267 249 250 273 273 269 255 255 255 246 243 246 244 247 261 274 277 280 282 284 285 286 286 285 287 282 284 284
250 246 244 240 238 238 238 237 245 245 237 238 240 240 246 242 249 251 270 284 277 267 259 254 248 243 248 247 260 275 278 278 280 281 282 282 282 284 284 288 283 282 284
263 256 251 246 245 242 238 233 235 246 239 234 234 243 245 248 250 255 268 282 287 287 262 256 248 242 272 275 275 283 281 282 282 283 281 279 279 282 284 287 285 288 289
259 255 248 251 250 247 252 238 233 242 236 231 240 239 242 241 238 243 256 270 289 288 276 264 270 244 280 283 282 288 284 285 286 287 283 280 280 282 283 283 286 290 292
265 255 247 250 252 245 239 241 241 245 240 234 235 232 231 236 236 238 243 248 252 277 276 261 272 269 281 279 282 287 282 284 290 290 287 282 281 283 286 288 289 290 291
263 260 256 250 253 252 242 237 244 245 247 246 236 230 234 231 238 235 234 250 249 254 270 276 272 294 293 294 286 287 284 288 287 286 284 282 281 282 286 288 285 286 289
260 266 262 257 255 252 245 242 244 246 246 249 246 236 236 232 231 237 239 241 251 250 267 286 289 292 291 294 301 296 291 284 283 284 284 284 284 285 287 288 284 286 288
265 267 271 267 265 262 249 241 244 245 243 247 242 237 235 242 241 237 235 241 251 251 257 275 289 293 291 291 299 298 303 301 296 292 289 285 285 284 284 288 292 294 294
273 270 273 268 264 260 251 243 242 239 240 239 234 233 230 230 243 248 249 248 254 260 257 263 280 292 292 302 307 304 311 313 305 297 291 285 286 285 284 289 293 297 300
278 279 276 272 264 259 258 259 257 244 242 237 239 241 235 230 228 230 247 243 248 252 252 258 275 294 299 303 316 311 310 309 303 302 293 291 293 291 290 292 295 299 303
283 289 285 282 270 259 259 263 259 251 244 245 252 252 249 251 254 253 258 240 237 244 251 258 267 288 291 312 307 305 303 313 305 318 316 308 305 303 297 293 295 302 309
281 283 284 277 275 272 276 272 268 238 244 242 249 258 262 255 276 284 280 279 273 255 242 251 264 268 273 276 290 299 308 318 306 313 315 304 310 305 309 299 302 311 316
269 270 276 282 285 290 280 273 278 254 248 247 249 251 272 272 283 210 298 321 314 306 285 262 249 262 265 265 277 291 296 299 294 303 320 303 316 313 316 315 318 322 328
270 277 283 287 291 295 293 297 322 317 276 279 267 255 242 256 259 184 81 1 340 326 312 305 280 279 286 270 249 257 269 301 318 325 343 306 321 317 319 318 323 334 340
285 280 286 289 294 300 300 298 316 286 25 336 332 317 302 191 287 336 56 20 359 340 339 336 334 343 348 345 343 4 346 350 330 324 353 329 312 322 316 309 329 341 344
286 285 296 287 280 288 304 309 308 174 176 294 350 333 312 318 315 341 70 91 340 314 342 358 350 353 3 4 5 9 291 299 319 315 341 348 316 338 331 317 341 350 354
Height
1500 1501 1501 1502 1502 1503 1504 1504 1505 1505 1506 1507 1507 1508 1508 1509 1509 1509 1509 1510 1510 1510 1510 1510 1510 1510 1510 1510 1510 1510 1510 1510 1509 1510 1510 1509 1509 1509 1508 1508 1508 1508 1507
1498 1498 1499 1499 1500 1500 1501 1502 1502 1503 1503 1504 1504 1505 1506 1506 1507 1507 1507 1507 1507 1507 1507 1507 1507 1507 1507 1507 1507 1507 1507 1506 1506 1506 1506 1506 1505 1505 1505 1505 1504 1504 1504
1494 1495 1496 1496 1497 1498 1498 1499 1499 1500 1501 1501 1501 1502 1502 1503 1503 1503 1503 1503 1504 1504 1504 1504 1504 1504 1504 1504 1504 1504 1504 1503 1503 1503 1502 1502 1502 1501 1501 1500 1500 1500 1499
1492 1493 1493 1493 1494 1495 1495 1496 1496 1497 1497 1498 1498 1498 1499 1499 1500 1500 1500 1500 1500 1500 1501 1501 1501 1501 1501 1501 1501 1500 1500 1500 1499 1499 1498 1498 1498 1497 1497 1496 1496 1495 1495
1489 1490 1490 1490 1491 1491 1492 1493 1493 1494 1494 1494 1495 1495 1495 1495 1496 1497 1497 1497 1497 1497 1497 1498 1498 1498 1498 1497 1497 1497 1496 1496 1495 1495 1495 1494 1494 1493 1493 1492 1492 1491 1490
1486 1486 1487 1488 1488 1488 1489 1489 1490 1490 1491 1491 1491 1492 1492 1492 1492 1493 1493 1494 1494 1494 1494 1494 1494 1494 1494 1493 1493 1493 1492 1492 1491 1491 1490 1490 1489 1489 1488 1488 1487 1486 1486
1483 1483 1484 1484 1485 1485 1485 1486 1486 1487 1487 1488 1488 1487 1488 1488 1488 1489 1490 1490 1490 1490 1490 1490 1490 1490 1489 1489 1489 1488 1488 1487 1487 1486 1486 1485 1485 1484 1483 1483 1482 1482 1481
1479 1480 1480 1481 1481 1481 1482 1482 1483 1483 1484 1485 1484 1484 1484 1485 1484 1485 1485 1485 1486 1486 1486 1485 1485 1485 1485 1484 1484 1484 1483 1483 1482 1482 1481 1481 1480 1479 1478 1478 1477 1477 1476
1476 1476 1476 1477 1477 1478 1478 1478 1479 1479 1480 1481 1481 1482 1481 1480 1480 1480 1480 1481 1481 1481 1481 1481 1481 1480 1480 1480 1479 1479 1479 1478 1478 1477 1476 1476 1475 1474 1474 1473 1472 1471 1470
1471 1472 1472 1473 1473 1473 1474 1474 1475 1476 1476 1476 1477 1478 1479 1478 1478 1475 1475 1476 1477 1477 1477 1477 1476 1475 1475 1475 1474 1474 1474 1473 1473 1472 1471 1470 1470 1469 1468 1467 1466 1465 1465
1467 1468 1468 1468 1468 1469 1469 1470 1471 1471 1472 1472 1472 1473 1473 1474 1473 1473 1470 1470 1471 1472 1472 1472 1471 1470 1470 1470 1469 1469 1468 1468 1467 1466 1465 1464 1464 1463 1462 1461 1461 1460 1459
1463 1463 1463 1463 1464 1464 1464 1465 1466 1466 1467 1467 1468 1468 1468 1468 1468 1468 1467 1465 1465 1466 1466 1466 1466 1466 1465 1465 1464 1463 1463 1462 1461 1460 1459 1458 1457 1457 1456 1455 1455 1454 1454
1458 1459 1459 1459 1459 1459 1460 1460 1461 1461 1462 1462 1463 1463 1463 1463 1464 1464 1464 1462 1461 1460 1460 1461 1461 1460 1460 1459 1459 1458 1457 1456 1455 1454 1453 1452 1451 1451 1450 1449 1449 1448 1448
1454 1454 1454 1455 1455 1455 1455 1455 1455 1456 1456 1457 1457 1458 1458 1459 1459 1459 1460 1459 1457 1456 1455 1455 1455 1455 1455 1454 1453 1452 1451 1450 1449 1448 1446 1446 1446 1445 1444 1443 1443 1442 1442
1450 1450 1450 1450 1450 1450 1450 1451 1450 1451 1452 1452 1452 1453 1453 1454 1454 1455 1455 1456 1456 1452 1450 1450 1450 1449 1449 1449 1448 1447 1446 1445 1444 1442 1441 1440 1440 1440 1439 1438 1437 1436 1436
1446 1445 1445 1445 1445 1445 1445 1446 1446 1447 1447 1447 1448 1448 1448 1448 1449 1450 1450 1451 1450 1450 1446 1445 1445 1444 1444 1443 1443 1442 1441 1440 1439 1437 1436 1435 1435 1434 1433 1432 1431 1431 1430
1441 1441 1440 1440 1440 1440 1440 1441 1441 1442 1442 1442 1443 1443 1443 1443 1443 1444 1444 1445 1445 1444 1442 1440 1440 1440 1439 1438 1437 1437 1436 1435 1433 1433 1431 1430 1430 1429 1428 1427 1425 1424 1424
1437 1437 1436 1436 1436 1436 1436 1437 1437 1437 1438 1438 1438 1438 1438 1439 1438 1439 1439 1439 1439 1439 1438 1436 1435 1435 1434 1434 1433 1432 1431 1430 1429 1428 1427 1426 1425 1423 1422 1421 1420 1419 1418
1433 1433 1433 1432 1432 1432 1432 1432 1432 1433 1433 1433 1434 1434 1434 1434 1433 1434 1434 1434 1434 1434 1433 1432 1431 1431 1430 1429 1428 1427 1426 1425 1424 1423 1422 1421 1420 1419 1418 1417 1415 1414 1412
1430 1429 1429 1429 1428 1428 1428 1428 1428 1429 1429 1429 1429 1429 1429 1429 1429 1429 1429 1429 1429 1429 1429 1428 1427 1426 1426 1425 1425 1423 1422 1421 1420 1419 1418 1417 1416 1415 1414 1412 1411 1409 1407
1426 1426 1426 1426 1426 1425 1425 1425 1425 1424 1424 1424 1425 1425 1425 1425 1425 1425 1425 1425 1425 1424 1424 1424 1423 1422 1422 1421 1421 1420 1419 1417 1416 1415 1414 1413 1412 1410 1409 1408 1406 1405 1403
1423 1423 1423 1422 1422 1422 1422 1422 1421 1421 1420 1420 1420 1421 1421 1421 1421 1421 1422 1421 1421 1421 1421 1420 1420 1419 1418 1418 1418 1417 1416 1414 1412 1413 1411 1409 1408 1407 1405 1404 1402 1401 1400
1420 1420 1420 1420 1419 1419 1419 1418 1418 1418 1417 1417 1417 1417 1417 1417 1418 1418 1418 1418 1417 1418 1418 1418 1417 1416 1415 1415 1414 1413 1413 1412 1410 1410 1409 1406 1405 1403 1402 1401 1400 1399 1397
1417 1417 1417 1417 1416 1416 1416 1415 1415 1415 1414 1414 1414 1414 1414 1414 1415 1415 1414 1414 1414 1414 1414 1414 1414 1413 1413 1413 1412 1411 1410 1409 1408 1407 1407 1404 1402 1400 1399 1398 1398 1396 1395
1415 1415 1414 1414 1414 1413 1413 1413 1412 1412 1411 1411 1411 1412 1412 1412 1412 1412 1412 1411 1411 1411 1412 1412 1412 1411 1410 1410 1410 1409 1408 1407 1405 1404 1404 1402 1400 1398 1396 1396 1395 1394 1393
1412 1412 1411 1411 1411 1411 1410 1410 1410 1409 1409 1409 1409 1409 1409 1410 1410 1410 1410 1409 1408 1409 1409 1409 1409 1409 1408 1408 1408 1407 1407 1405 1404 1403 1402 1401 1398 1397 1395 1394 1393 1392 1392